This demonstration page uses our WeatherBlox Daily Observations layout. Learn more.

Left ArrowRight Arrow

41.55636, -103.73856

Hourly Observations for October 17, 2018

Temp ( °F °C ) Dew Point ( °F °C ) Humidity (%) Winds ( mph kmh ) Pressure ( in mb ) Visibility ( mi km ) Precip ( " mm )
12:58 am 00:58 Clear 34 1 29 -1.9 81 81 WNW 9 15 30.49 1033 10 16 N/A
1:58 am 01:58 Clear 35 1.9 28 -2 76 76 NW 7 11 30.49 1032 10 16 N/A
2:58 am 02:58 Clear 35 1.5 28 -2.1 77 77 NW 7 11 30.47 1032 10 16 N/A
3:58 am 03:58 Clear 34 1 28 -2.5 78 78 NW 6 9 30.49 1032 10 16 N/A
4:58 am 04:58 Clear 35 1.4 28 -2.4 76 76 Calm 30.49 1032 10 16 N/A
5:58 am 05:58 Clear 36 2.3 28 -2.5 71 71 SSW 3 6 30.51 1033 10 16 N/A
6:58 am 06:58 Clear 31 -0.3 26 -3.2 81 81 WSW 6 9 30.56 1035 10 16 N/A
7:58 am 07:58 Sunny 34 1 29 -1.9 81 81 WSW 7 11 30.58 1036 10 16 N/A
8:58 am 08:58 Sunny 41 5.2 33 0.3 71 71 WSW 3 6 30.56 1035 10 16 N/A
9:58 am 09:58 Sunny 48 9 33 0.3 55 55 SSW 8 13 30.53 1034 10 16 N/A
10:58 am 10:58 Sunny 52 11 34 1 50 50 SSW 10 17 30.53 1034 10 16 N/A
11:58 am 11:58 Sunny 56 13.5 31 -0.5 38 38 SSW 7 11 30.49 1033 10 16 N/A
12:58 pm 12:58 Sunny 58 14.3 31 -0.8 36 36 SSW 12 19 30.45 1031 10 16 N/A
1:58 pm 13:58 Sunny 59 14.9 29 -1.5 33 33 S 10 17 30.42 1030 10 16 N/A
2:58 pm 14:58 Sunny 60 15.5 29 -1.5 31 31 SSW 10 17 30.39 1029 10 16 N/A
3:58 pm 15:58 Sunny 59 15.1 28 -2 31 31 S 17 28 30.39 1029 10 16 N/A
4:58 pm 16:58 Sunny 58 14.3 29 -1.6 34 34 S 15 24 30.38 1029 10 16 N/A
5:58 pm 17:58 Sunny 54 12 32 0 44 44 S 12 19 30.40 1029 10 16 N/A
6:58 pm 18:58 Mostly Cloudy 50 10 32 0 50 50 S 10 17 30.43 1030 10 16 N/A
7:58 pm 19:58 Mostly Cloudy 49 9.5 33 0.7 55 55 S 12 19 30.41 1030 10 16 N/A
8:58 pm 20:58 Mostly Cloudy 46 8 34 1 62 62 S 8 13 30.39 1029 10 16 N/A
9:58 pm 21:58 Partly Cloudy 45 7.1 33 0.7 64 64 SSW 15 24 30.36 1028 10 16 N/A
10:58 pm 22:58 Mostly Clear 44 6.4 33 0.7 67 67 S 14 22 30.34 1027 10 16 N/A
11:58 pm 23:58 Mostly Cloudy 46 7.8 34 1.2 63 63 S 18 30 30.30 1026 10 16 N/A

Powered by AerisWeather